Weather Roundup
Issued by NWS Chicago, IL

Home | Current Version | Previous Version | Graphics & Text | Print | Product List | Glossary On
Versions: 1 2 3 4 5 6 7 8 9 10 11 12 13 14 15 16 17 18 19 20 21 22 23 24 25 26 27 28 29 30 31 32 33 34 35 36 37 38 39 40 41 42 43 44 45 46 47 48 49 50
000
NZUS59 KLOT 120203
HRRLOT

CHICAGO AREA WEATHER ROUNDUP
NATIONAL WEATHER SERVICE CHICAGO/ROMEOVILLE IL
800 PM CST THU FEB 11 2016

NOTE: "FAIR" INDICATES FEW OR NO CLOUDS BELOW 12,000 FEET WITH NO
SIGNIFICANT WEATHER AND/OR OBSTRUCTIONS TO VISIBILITY.

* THESE STATIONS ARE NOT UNDER NWS QUALITY CONTROL. THEY ALSO MAY NOT
  REPORT WEATHER SUCH AS PRECIPITATION OR FOG.

ILZ005-006-012>014-019>023-120300-
NORTHEAST ILLINOIS

CITY           SKY/WX    TMP DP  RH WIND       PRES   REMARKS
OHARE          PTCLDY    17   5  59 W6        30.27S WCI   9
MIDWAY         PTCLDY    19   3  49 W8        30.28F WCI   9
AURORA         CLOUDY    19   8  62 SW3       30.28F
LANSING*       CLEAR     17   5  58 W5        30.29S WCI  10
WAUKEGAN       CLEAR     11   3  70 CALM      30.26S
DUPAGE AIRPORT CLEAR     14   3  61 CALM      30.27S
WHEELING       CLEAR     18   3  52 CALM      30.28F
$$

WIZ051-052-058>065-066-070>072-120300-
SOUTHEAST WISCONSIN

CITY           SKY/WX    TMP DP  RH WIND       PRES   REMARKS
MILWAUKEE      PTCLDY    15   0  51 W5        30.26S WCI   8
KENOSHA*       CLEAR     13   2  61 W6        30.26S WCI   4
RACINE*        CLEAR     13   0  56 SW3       30.27S
BURLINGTON     CLEAR      8   1  72 CALM      30.26S
WAUKESHA       CLEAR     10  -2  56 W5        30.25S WCI   2
$$

INZ001>003-010>013-019-020-120300-
NORTHWEST INDIANA

CITY           SKY/WX    TMP DP  RH WIND       PRES   REMARKS
GARY*          CLEAR     18   7  62 S3        30.29F
MICHIGAN CITY* NOT AVBL
RENSSELAER*    NOT AVBL
VALPARAISO     CLEAR     13   5  70 CALM      30.28S
$$

LMZ740>746-120300-
SOUTHERN LAKE MICHIGAN

STATION/POSITION TIME  SKY/WX   TEMP WIND        PRES    VSBY
                                AIR  DIR/SP/G
                 (UTC)          (F)  (DEG/KT/KT) (MB)    (MI)
HARRISON CRIB    0100            21  190/  5/  6   N/A
BURNHAM HARBOR   0200            21  270/  6/ 10   N/A
CALUMET HARBOR   0100            21              1024.9R
BURNS HARBOR     0100            18  120/  3/  4 1026.1S
MICHIGAN CITY    0100            17  120/  3/  4   N/A
$$

ABBREVIATIONS USED IN REMARKS
   TC - TEMPERATURE IN CELSIUS
  WCI - WIND CHILL INDEX
   HX - HEAT INDEX
  VSB - VISIBILITY
$$



USA.gov is the U.S. government's official web portal to all federal, state and local government web resources and services.